This is the latest recevied weather packets stored in our database for station/object IZ3MEZ-13. If no packets are shown the sender has not sent any weather packets the latest 1 day(s).
| Time | Temp. | Humidity | Pressure | Rain* | Wind** | Luminosity | Snow |
|---|---|---|---|---|---|---|---|
| 1777997719 | 14.44° C | 90% | 1014.6 hPa | 0 mm | 0.89 m/s, 19° | 19 W/m² | - |
| 1777997130 | 14.44° C | 90% | 1014.6 hPa | 0 mm | 0.89 m/s, 14° | 15 W/m² | - |
| 1777996522 | 15° C | 89% | 1014.7 hPa | 0 mm | 1.34 m/s, 10° | 20 W/m² | - |
| 1777995923 | 15° C | 89% | 1014.7 hPa | 0 mm | 0.89 m/s, 15° | 8 W/m² | - |
| 1777995318 | 15° C | 88% | 1014.7 hPa | 0 mm | 1.34 m/s, 9° | 14 W/m² | - |
| 1777994723 | 15° C | 88% | 1014.7 hPa | 0 mm | 0.89 m/s, 8° | 15 W/m² | - |
| 1777994123 | 15.56° C | 87% | 1014.6 hPa | 0 mm | 1.34 m/s, 9° | 11 W/m² | - |
| 1777993520 | 16.11° C | 87% | 1014.6 hPa | 0 mm | 0.89 m/s, 13° | 17 W/m² | - |
| 1777992918 | 16.11° C | 87% | 1014.7 hPa | 0 mm | 0.89 m/s, 14° | 92 W/m² | - |
| 1777992317 | 16.11° C | 87% | 1014.8 hPa | 0 mm | 0.45 m/s, 351° | 37 W/m² | - |
| 1777991720 | 15.56° C | 86% | 1014.7 hPa | 0 mm | 0.45 m/s, 15° | 32 W/m² | - |
| 1777991424 | 15.56° C | 86% | 1014.9 hPa | 0 mm | 0.89 m/s, 15° | 38 W/m² | - |
| 1777990819 | 15.56° C | 86% | 1014.9 hPa | 0 mm | 0.89 m/s, 14° | 52 W/m² | - |
| 1777990220 | 15.56° C | 85% | 1014.9 hPa | 0 mm | 0.45 m/s, 20° | 41 W/m² | - |
| 1777989618 | 15.56° C | 85% | 1014.9 hPa | 0 mm | 0.45 m/s, 24° | 51 W/m² | - |
| 1777989031 | 15.56° C | 85% | 1015.1 hPa | 0 mm | 0.89 m/s, 32° | 69 W/m² | - |
| 1777988421 | 15.56° C | 84% | 1015.1 hPa | 0 mm | 0.89 m/s, 13° | 43 W/m² | - |
| 1777987832 | 16.11° C | 84% | 1015.3 hPa | 0 mm | 0.45 m/s, 7° | 45 W/m² | - |
| 1777987217 | 16.11° C | 84% | 1015.2 hPa | 0 mm | 0.89 m/s, 16° | 49 W/m² | - |
| 1777986619 | 15.56° C | 84% | 1015.4 hPa | 0 mm | 0.89 m/s, 15° | 110 W/m² | - |
| 1777986028 | 15.56° C | 84% | 1015.4 hPa | 0 mm | 0.45 m/s, 8° | 72 W/m² | - |
| 1777985419 | 15.56° C | 84% | 1015.4 hPa | 0 mm | 0.45 m/s, 13° | 48 W/m² | - |
| 1777984823 | 15.56° C | 83% | 1015.5 hPa | 0 mm | 0.89 m/s, 6° | 40 W/m² | - |
| 1777984222 | 16.11° C | 83% | 1015.6 hPa | 0 mm | 0.89 m/s, 16° | 41 W/m² | - |
| 1777983619 | 16.11° C | 82% | 1015.7 hPa | 0 mm | 0.45 m/s, 11° | 52 W/m² | - |
* Rain latest hour (hover to see other rain measurements)
** Current wind speed in m/s (hover to see current wind gust speed)